Theta_e
312 312 311 310 309 309 309 309 309 309 309 310 311 311 309 309 309 308 307 307 308 308 309 310 310 309 308 308 308 308 309 308 308 308 308 308 308 307 307 307 307 307 307 306 307 307 307 308 309 309 309 308 309 309 309 308 309 308 310 313 313 315 316 316 317 317 316 316 317 316 316 316 318 318 318 318 319 320 319 321 322 322 321 321 321 321 322
312 311 310 308 308 308 308 309 309 308 308 309 310 310 308 307 308 307 307 307 308 308 309 309 309 309 308 308 308 308 308 308 308 308 308 308 308 307 307 307 307 307 307 306 307 307 306 308 309 309 309 309 309 310 309 309 309 308 311 314 314 314 315 316 317 319 318 319 320 319 318 318 317 317 317 316 317 318 319 321 322 321 321 321 321 321 322
311 309 308 307 307 309 309 308 308 308 308 308 308 308 307 307 309 308 307 307 308 308 307 308 308 308 308 308 308 308 308 308 308 308 308 308 308 307 307 307 307 307 307 307 307 307 307 307 308 309 309 309 310 310 309 309 309 308 311 314 313 313 314 315 316 319 321 322 321 318 318 317 316 316 316 316 316 317 319 322 321 320 322 322 321 321 323
309 307 306 307 308 310 309 308 308 308 309 309 308 308 307 307 309 309 307 307 307 306 306 307 307 307 308 308 308 308 308 308 308 308 308 308 308 307 307 308 308 307 308 308 307 307 307 307 307 308 307 307 309 310 309 309 309 309 311 313 311 311 314 314 315 317 317 318 317 314 314 315 315 316 316 316 316 316 318 321 322 322 323 321 322 324 323
307 306 307 309 310 310 309 308 308 308 308 308 308 307 307 307 307 307 307 307 307 307 307 307 308 307 308 308 308 307 308 308 308 308 308 308 308 308 308 307 308 308 308 308 308 307 307 307 307 307 307 307 308 309 308 308 309 310 311 311 309 311 313 313 314 314 313 314 313 312 312 314 314 315 315 315 316 316 318 320 322 324 322 320 326 330 324
306 306 309 310 311 310 309 308 308 309 308 308 308 307 307 307 307 306 306 307 307 307 307 307 308 308 308 308 308 308 307 307 308 308 308 308 308 308 308 308 307 307 307 307 308 308 307 307 308 307 308 308 307 308 308 308 308 310 311 309 309 310 312 312 312 312 312 312 312 312 313 313 314 314 314 315 316 316 318 319 320 323 324 323 328 334 330
306 308 310 311 311 309 308 308 309 309 308 307 308 307 307 307 307 307 307 307 307 307 306 307 307 308 309 309 307 307 307 307 307 308 308 308 308 308 308 308 308 307 307 307 308 308 308 308 308 308 308 308 308 308 308 308 309 310 309 308 309 310 311 312 311 311 312 312 312 312 313 313 314 314 314 315 316 316 318 320 322 323 325 325 328 332 331
308 310 311 311 310 309 308 308 309 308 308 307 307 307 307 307 307 307 307 308 308 307 306 307 307 307 308 308 308 308 307 307 307 308 308 308 308 308 308 308 307 307 307 308 308 308 307 307 308 308 308 308 308 308 308 308 309 310 308 308 309 310 311 313 312 312 313 312 313 313 313 314 314 314 315 315 316 318 323 327 330 329 329 328 328 329 330
310 312 311 310 309 308 308 308 308 308 308 308 307 307 307 307 307 307 307 308 309 307 306 306 307 307 307 308 308 307 307 307 307 308 308 308 308 308 307 307 307 307 308 308 308 308 307 308 308 308 308 308 308 308 308 308 309 309 309 308 309 309 310 311 311 312 314 313 313 313 313 314 315 316 316 317 319 325 331 335 336 335 333 332 328 327 332
312 312 311 310 309 309 308 308 308 308 308 308 308 308 308 308 307 307 307 308 308 307 306 306 307 307 307 307 307 307 307 308 308 307 308 308 308 308 308 308 308 307 308 308 308 308 308 308 308 308 308 308 308 308 309 308 308 308 309 308 308 308 309 310 311 313 314 313 313 314 315 317 319 319 319 320 325 330 333 335 337 335 335 335 332 332 336
312 311 311 310 309 309 308 308 308 308 309 309 308 308 308 308 308 307 308 308 308 307 307 307 307 307 307 307 307 307 308 308 308 308 308 308 308 308 308 308 308 308 308 308 308 308 308 308 308 309 308 309 309 309 309 309 309 309 309 308 308 309 309 309 311 312 314 314 314 316 318 320 323 323 322 324 328 332 333 335 335 333 332 333 334 334 335
311 311 311 311 310 310 309 308 308 308 309 309 309 309 308 308 308 308 308 308 308 307 307 307 307 307 307 307 307 307 308 308 308 308 308 308 308 308 308 308 308 308 308 308 308 308 308 308 308 308 309 309 309 309 309 308 308 309 309 309 309 309 309 309 310 312 314 314 315 319 322 322 323 324 324 325 327 329 332 334 331 328 329 329 330 332 332
311 312 312 312 311 310 309 308 308 308 309 309 309 309 309 309 309 308 307 308 308 308 307 307 307 307 308 308 308 308 308 309 309 308 308 308 308 308 308 308 308 308 308 308 308 308 309 309 309 308 308 308 308 308 308 307 308 309 309 309 309 308 309 310 311 312 313 314 317 322 322 320 322 323 322 324 326 327 332 336 331 326 325 326 327 329 329
312 313 313 313 312 311 309 308 308 308 309 309 309 309 309 309 309 308 308 308 308 308 308 308 308 308 308 308 309 309 309 309 309 308 308 308 308 308 308 308 308 308 308 308 309 309 309 308 309 308 309 309 309 309 309 309 308 308 308 309 309 308 309 310 311 312 313 315 317 319 320 322 325 324 322 323 325 326 331 336 332 325 323 324 324 325 327
312 313 314 313 313 312 310 308 308 308 309 309 309 309 309 309 309 309 308 308 308 308 308 308 308 308 308 309 309 308 308 308 308 308 308 308 308 308 308 308 308 308 308 308 309 309 308 308 308 309 309 309 310 310 311 311 311 310 308 308 309 308 309 310 311 312 313 314 317 318 320 325 327 323 320 321 323 323 324 332 334 325 320 322 322 323 326
313 314 314 314 313 312 311 309 308 308 308 309 309 309 309 309 309 309 308 308 308 309 308 308 307 307 308 309 309 308 309 309 308 308 308 308 308 308 308 308 308 307 308 309 309 308 308 308 308 308 309 309 309 310 310 311 312 311 309 308 309 308 309 310 311 312 313 313 316 318 321 324 324 322 320 322 325 323 324 333 337 325 319 320 320 322 325
314 314 314 314 313 312 312 310 309 308 308 309 309 309 309 309 309 309 309 308 308 309 308 308 307 308 308 309 309 309 309 309 309 308 308 308 309 309 308 308 308 308 308 309 309 308 308 308 308 308 309 309 309 310 310 310 312 311 309 309 309 309 310 311 311 312 313 314 315 317 318 321 321 320 322 324 324 324 328 337 337 324 318 319 319 322 325
314 315 314 314 313 313 313 311 310 309 309 308 309 309 309 309 309 309 309 309 308 309 309 308 308 309 309 309 309 309 309 309 309 309 308 308 309 309 309 309 308 308 308 309 309 308 307 308 308 308 308 309 309 310 310 310 311 311 310 310 310 310 311 311 311 311 312 314 316 316 317 320 321 321 322 323 324 328 334 336 330 321 319 319 319 321 323
314 315 314 314 314 313 313 312 311 310 309 309 309 309 309 309 309 309 309 309 309 309 309 309 309 309 309 309 309 309 309 309 309 309 309 309 309 309 309 308 308 308 309 309 308 308 308 308 308 308 308 309 309 309 310 310 310 311 311 311 310 311 312 311 311 311 313 314 316 316 318 320 320 321 322 322 326 332 332 327 321 319 318 318 319 321 321
315 315 314 315 314 314 313 312 311 311 310 310 309 309 309 309 309 309 309 309 309 309 309 309 309 310 309 309 309 310 310 310 309 309 309 309 309 309 309 308 308 309 309 309 308 308 308 308 309 309 308 309 309 309 310 310 309 309 311 312 312 312 313 313 313 313 313 314 315 316 319 320 319 321 321 320 322 325 323 320 320 318 316 316 319 319 318
315 315 314 314 315 314 314 313 312 311 311 310 310 309 309 309 308 308 309 309 309 309 310 309 309 309 309 309 310 310 309 310 310 309 309 309 309 309 308 308 308 309 309 309 308 308 308 308 309 309 309 309 309 309 310 310 310 309 309 311 312 312 313 315 315 315 315 316 316 317 319 319 318 319 319 317 316 317 317 318 319 316 314 315 316 317 317
315 316 314 314 315 315 314 314 313 312 311 310 310 310 310 309 309 308 308 308 309 309 309 309 309 309 309 309 309 309 310 310 309 309 310 309 309 309 309 309 310 309 309 309 309 309 309 309 308 309 309 309 309 310 310 310 311 309 309 310 311 311 311 313 314 314 314 315 316 315 316 316 316 316 316 314 314 314 314 316 316 315 314 315 314 315 316
316 316 314 314 315 315 315 315 314 312 312 311 310 310 310 309 309 309 309 309 309 309 309 309 309 309 309 309 309 310 310 310 310 310 310 309 309 309 309 309 309 309 308 309 309 308 308 308 308 309 309 309 309 310 310 310 311 310 309 310 310 309 310 312 312 312 312 313 314 313 313 314 315 314 313 312 312 312 312 314 314 313 313 314 314 314 314
316 316 315 314 315 315 315 315 314 314 313 312 311 311 310 310 310 309 310 310 309 309 310 310 309 309 309 309 309 310 310 311 311 311 310 310 310 309 309 308 309 309 309 308 308 308 307 308 308 308 309 309 309 309 310 310 310 309 310 310 309 309 311 311 310 311 312 314 314 312 311 314 315 314 313 312 312 312 312 312 313 312 312 313 313 313 314
316 316 316 316 315 315 316 316 316 315 314 313 312 311 311 310 310 310 310 310 309 309 310 311 311 310 310 310 310 311 312 312 312 312 311 310 310 309 309 309 308 309 309 308 307 307 306 306 307 308 309 309 308 308 309 309 309 309 310 310 309 310 311 311 309 310 312 313 312 311 311 314 315 315 314 313 312 312 312 312 312 312 312 312 313 313 314
316 317 316 317 317 316 317 317 317 316 315 314 313 312 312 311 311 310 310 310 310 310 310 311 311 311 311 311 311 312 312 312 312 312 311 311 310 309 309 309 309 309 309 309 308 307 305 305 306 307 308 308 308 308 308 309 309 309 309 309 309 310 311 310 310 310 311 312 312 311 312 314 315 314 314 313 312 312 312 313 313 312 312 312 312 313 314
317 317 317 317 317 317 318 318 318 318 317 315 314 313 313 312 311 311 310 310 310 311 310 311 312 312 312 312 312 312 312 311 311 311 311 310 310 310 310 310 310 309 309 308 308 307 305 305 306 307 307 307 307 308 308 308 309 309 309 308 309 309 310 310 310 311 311 312 311 311 311 313 313 313 312 312 312 312 312 312 312 312 312 312 312 313 313
317 318 318 318 318 318 318 318 318 318 318 317 315 314 314 313 313 312 311 310 311 311 310 310 312 312 312 313 313 313 312 310 310 310 310 310 309 310 310 310 309 309 309 308 308 307 306 305 306 306 306 307 308 308 309 309 310 309 308 308 308 309 309 309 310 311 311 311 310 310 310 311 311 311 312 312 312 312 312 312 313 313 313 312 312 312 312
317 319 319 319 319 319 318 318 318 318 318 318 317 315 314 314 313 313 312 311 311 310 309 310 311 312 312 313 313 314 313 312 310 310 309 309 309 309 309 310 310 309 309 308 308 308 307 306 306 307 307 308 308 308 308 309 309 309 308 308 308 308 308 309 309 309 310 310 309 309 310 310 310 311 312 312 312 313 313 313 314 314 314 313 312 312 312
316 318 319 320 320 319 319 319 319 318 318 318 317 316 315 315 314 314 313 312 311 311 310 310 312 312 312 312 313 314 314 313 312 311 310 310 309 309 309 310 310 309 308 308 309 309 308 308 308 308 308 308 308 307 307 308 309 309 308 308 308 308 308 308 308 309 309 308 308 309 309 310 310 311 312 313 313 313 314 314 315 315 314 314 313 312 312
316 317 318 320 320 320 320 319 319 318 318 318 317 317 316 315 315 315 314 312 311 311 309 309 311 312 312 312 313 314 314 314 313 312 311 310 310 310 309 310 310 309 309 309 309 309 310 309 309 309 309 308 308 307 306 307 308 309 308 308 308 307 307 308 308 308 308 307 308 309 309 310 311 312 312 314 314 315 314 315 315 315 314 314 313 312 312
316 317 318 319 319 319 320 320 319 319 319 318 317 317 317 317 316 316 315 313 311 311 310 310 311 312 312 312 312 313 314 314 314 313 313 312 312 311 310 310 310 310 310 310 309 310 310 310 310 310 309 308 308 307 306 307 309 309 308 308 308 307 307 307 307 307 307 307 308 309 309 310 310 311 312 314 315 315 315 315 315 315 314 314 313 312 313
317 317 317 317 317 318 319 320 320 319 318 318 318 317 317 317 317 316 314 312 311 311 310 310 312 313 312 312 312 313 315 315 314 314 314 313 313 313 313 312 311 311 311 311 310 310 310 310 311 311 310 308 308 307 307 308 309 309 308 308 307 307 307 307 307 307 307 307 307 308 308 309 310 311 313 314 315 315 314 314 314 314 314 313 312 312 313
316 316 316 316 316 317 319 319 319 319 318 318 318 318 317 317 317 315 314 313 312 311 310 310 311 313 313 313 314 314 315 315 314 314 314 314 314 314 313 312 312 312 312 311 311 311 311 311 311 311 310 309 308 307 308 309 309 308 307 307 307 307 306 307 307 307 307 307 307 307 308 308 310 311 313 314 314 314 314 313 313 313 312 312 311 312 313
315 316 316 317 317 317 318 319 319 319 319 318 318 317 317 317 316 314 313 312 312 312 311 310 311 313 315 317 317 316 315 315 314 313 314 315 314 313 313 313 313 313 312 312 312 312 311 311 311 311 310 310 309 308 309 309 309 308 308 307 307 306 306 306 306 307 307 307 307 307 307 308 309 310 311 312 313 314 313 313 312 312 312 311 311 312 313
316 316 316 317 317 318 319 320 320 319 319 318 317 317 316 316 315 313 313 313 313 313 311 310 311 312 315 318 317 315 315 316 315 313 314 315 315 314 312 313 314 313 311 312 314 313 311 310 310 310 310 309 309 309 309 309 308 308 307 307 307 306 306 306 306 306 306 306 306 307 307 307 308 309 309 311 313 314 314 313 312 312 311 311 311 311 312
316 316 316 317 317 318 320 321 321 319 318 318 317 316 316 315 314 313 312 312 313 313 312 311 312 313 314 315 315 314 315 316 315 315 315 315 315 314 313 313 314 313 312 313 314 313 311 310 310 309 309 309 310 310 310 309 309 308 307 307 306 306 306 306 306 306 306 306 306 306 306 307 307 308 309 310 312 314 315 314 313 311 311 311 311 310 311
315 316 316 316 317 319 321 320 319 318 318 317 317 316 316 315 314 313 313 312 313 313 312 312 313 313 312 314 315 316 317 316 315 316 316 315 314 314 314 314 314 313 313 313 313 311 311 311 311 309 309 310 310 310 309 309 309 308 307 306 306 305 305 305 305 306 306 306 306 306 306 306 307 307 308 309 310 312 314 315 314 313 311 311 311 311 311
315 316 316 317 318 319 320 319 319 318 317 317 317 316 316 316 315 315 314 313 313 313 313 313 314 313 312 315 317 316 316 317 317 317 317 316 315 315 314 313 314 313 311 312 312 311 311 311 310 309 309 311 311 310 309 309 309 309 307 307 307 306 306 305 305 305 306 306 306 306 306 306 307 307 307 308 309 311 312 314 315 315 314 313 312 311 311
315 316 317 317 318 319 319 319 318 317 318 318 318 317 317 316 316 316 316 315 316 316 314 314 314 314 314 316 318 317 316 317 317 318 318 316 315 315 314 313 313 312 311 311 312 311 310 310 309 309 309 311 311 310 309 309 310 309 308 307 307 307 307 306 305 305 305 306 306 306 306 306 306 307 307 308 309 309 311 312 314 315 316 315 315 314 313
316 317 317 317 318 320 320 319 318 317 317 318 317 317 316 315 314 315 315 316 318 317 315 313 316 317 316 315 316 317 317 317 316 317 318 317 315 315 314 313 313 312 310 311 312 311 310 309 309 309 310 311 311 310 309 309 309 310 309 308 308 307 307 307 306 305 305 305 306 306 306 306 306 307 307 307 308 309 310 311 312 314 314 315 315 316 316
317 317 317 317 320 320 319 318 318 318 316 316 316 316 315 313 313 314 315 315 315 316 315 314 316 317 315 314 315 316 317 317 317 317 317 317 316 316 314 313 312 311 311 311 311 310 309 308 308 309 311 311 311 309 308 309 309 310 310 309 308 308 308 308 307 306 305 304 305 305 306 306 306 306 307 307 308 308 309 309 311 312 313 313 314 315 316
317 317 317 319 321 320 318 317 317 317 315 315 315 315 314 314 313 313 313 313 313 314 314 313 313 313 313 314 316 317 317 318 318 317 317 316 315 314 313 312 311 311 311 310 310 309 308 308 308 309 311 311 310 309 309 309 308 309 310 309 309 308 308 307 308 307 305 304 304 305 305 306 306 306 307 307 307 308 308 309 309 310 311 312 313 313 314
317 317 318 320 319 317 316 315 314 314 314 315 314 313 314 314 313 312 313 313 312 312 312 311 311 312 313 314 316 317 318 318 317 316 315 314 313 312 312 312 311 311 311 310 309 309 308 309 309 310 311 310 309 308 309 309 308 308 309 309 308 309 308 307 307 307 306 304 304 304 305 305 306 306 306 307 307 307 307 308 308 309 310 311 312 311 312
317 317 318 317 314 313 313 313 312 312 313 315 315 314 314 313 313 313 313 312 311 312 311 310 310 312 313 315 315 315 316 317 316 315 314 313 312 311 311 311 311 310 309 309 309 308 308 308 310 311 311 310 308 307 308 309 309 308 308 308 308 308 309 308 307 307 307 305 304 303 304 305 305 305 306 306 306 307 307 307 307 308 309 309 309 309 310
319 318 316 315 313 312 311 312 313 314 314 314 314 314 314 313 313 313 313 311 311 311 311 310 311 312 314 315 314 312 312 314 314 313 312 312 312 311 310 310 310 309 308 308 308 308 307 308 310 311 309 308 307 306 307 309 309 308 307 307 307 308 308 308 308 308 307 305 304 303 303 304 305 305 305 305 306 306 306 306 306 307 307 307 307 307 308
319 317 314 314 314 312 311 312 314 315 313 313 313 313 313 312 312 312 312 312 311 311 310 310 311 312 312 312 312 311 311 311 312 311 311 312 311 310 309 309 309 309 308 308 308 308 308 309 310 310 308 307 306 306 307 309 309 308 307 307 307 307 307 307 308 308 307 306 304 304 303 303 304 305 305 305 305 305 305 305 305 305 306 306 306 306 307
318 316 314 314 314 313 312 313 313 313 313 313 313 313 312 312 312 312 312 311 311 311 310 310 311 312 311 310 311 312 311 310 310 310 311 311 310 309 309 308 308 308 309 308 308 309 310 310 309 308 307 306 305 306 308 309 309 308 307 306 306 306 307 307 308 308 307 306 305 304 303 303 303 304 305 305 304 304 304 304 304 305 305 305 305 305 305
317 316 315 314 313 313 312 312 312 312 313 314 313 312 312 313 312 312 312 311 311 311 310 310 311 311 311 310 310 311 311 310 310 309 309 309 309 309 309 309 308 307 308 310 310 310 310 309 308 307 306 305 304 305 307 308 308 307 307 306 306 307 307 306 307 307 307 306 306 305 304 303 303 304 304 305 304 304 304 304 304 304 304 304 304 304 304
316 316 315 314 313 314 313 312 312 313 314 314 314 313 313 312 312 312 312 311 311 310 310 310 310 310 309 309 310 310 310 310 310 309 308 309 309 308 308 308 308 307 308 310 311 310 310 308 307 306 306 305 304 304 306 307 307 308 307 306 306 307 307 306 306 307 307 307 306 306 305 304 303 303 303 304 304 304 303 303 303 302 302 303 303 303 303
314 314 314 314 314 314 314 313 314 315 315 315 315 313 312 312 311 312 311 311 310 311 311 310 310 311 310 310 310 310 309 310 310 309 308 308 308 308 308 308 307 307 308 309 309 309 308 307 306 306 305 304 304 304 304 305 306 307 307 307 307 306 306 306 305 305 306 307 307 306 305 305 304 303 303 304 304 304 304 303 302 302 301 302 302 302 303
314 313 314 315 314 314 314 314 314 315 315 316 314 312 311 311 311 310 309 310 311 311 310 309 311 312 311 310 310 310 310 309 309 309 309 308 308 308 308 308 307 307 307 308 308 308 307 306 306 306 305 304 303 303 303 303 304 305 306 306 306 306 306 305 304 304 305 306 306 306 306 305 304 303 303 303 304 304 304 303 302 302 301 301 301 301 302
Wind_Speed
32 32 30 29 28 28 28 28 27 27 27 26 24 19 15 10 5 13 22 15 6 8 6 3 3 4 3 3 3 4 5 6 7 9 9 6 4 3 3 2 2 2 2 2 2 3 2 2 3 2 2 2 2 1 5 10 9 6 4 4 4 4 3 3 5 5 8 10 5 1 1 3 4 1 2 3 3 3 4 5 3 5 10 9 8 9 7
31 31 29 27 27 26 27 27 26 25 24 23 21 17 13 9 7 14 23 15 6 6 4 2 3 4 3 5 7 6 6 8 8 7 8 7 4 2 4 4 3 3 3 3 2 3 2 2 2 3 3 1 1 1 3 7 7 5 4 5 6 4 2 2 3 4 6 7 4 4 4 3 1 0 2 2 4 7 6 4 3 5 9 11 10 8 6
30 29 28 26 26 26 26 25 24 22 20 18 17 14 11 8 4 11 22 21 15 10 5 3 3 4 4 6 8 7 5 7 8 6 7 8 5 2 3 3 4 5 5 3 2 3 2 2 2 2 3 2 1 2 3 5 7 7 8 9 8 4 3 2 3 5 7 6 4 3 1 1 1 1 2 3 5 6 5 2 4 6 7 11 11 7 6
29 27 26 26 26 25 24 23 22 20 18 15 14 12 8 5 3 5 12 19 21 15 10 7 4 3 3 4 6 7 5 5 7 6 6 9 8 3 3 4 3 5 7 4 3 3 2 2 3 4 5 5 2 1 3 6 9 11 11 10 7 4 4 5 6 7 6 2 1 1 2 3 4 4 6 5 3 2 2 2 4 2 2 8 7 4 8
27 26 26 25 24 24 23 22 20 18 16 14 12 10 6 3 3 4 5 8 11 10 10 10 5 2 2 2 3 7 6 5 6 5 5 8 8 3 4 6 4 4 6 4 3 4 3 4 6 6 6 5 4 6 7 8 11 11 9 7 5 4 5 7 9 11 11 9 6 4 5 6 7 8 10 8 5 3 3 5 5 4 4 7 3 3 10
25 25 25 25 24 23 21 20 18 16 14 13 11 9 8 4 3 4 3 3 4 5 7 9 6 3 2 2 2 5 7 6 6 4 4 6 7 3 2 5 6 4 4 3 3 4 4 5 5 4 4 5 6 9 9 9 9 8 7 5 3 4 6 8 9 12 13 11 8 7 8 9 9 10 11 11 8 6 6 9 9 7 5 5 5 6 7
24 25 25 24 23 22 20 18 16 15 14 13 11 9 8 6 3 4 5 4 2 2 4 6 5 5 4 3 4 5 6 7 5 3 4 4 5 4 3 4 6 6 3 2 3 3 4 4 3 3 5 7 7 7 8 7 6 5 6 5 3 4 5 6 8 11 13 12 9 8 10 11 10 10 12 12 10 9 9 10 12 12 10 9 13 15 10
24 25 24 23 22 20 18 15 15 14 13 12 12 11 8 6 4 4 4 3 3 2 3 3 2 4 4 3 4 4 5 7 6 4 4 3 2 4 5 6 8 7 4 3 4 4 5 6 5 5 7 8 6 5 5 5 3 4 5 4 4 4 4 4 5 8 11 11 10 10 11 10 10 11 11 11 11 10 9 9 8 9 10 11 14 16 10
25 25 23 22 20 18 17 15 13 13 12 11 11 11 8 6 5 4 3 3 3 3 3 2 1 2 3 3 4 4 4 7 8 6 3 3 2 5 7 8 7 6 5 5 6 7 7 9 12 12 12 12 10 7 7 7 5 5 6 5 4 4 5 5 5 6 7 6 6 7 8 9 12 14 12 11 10 6 4 4 3 3 6 8 9 9 5
25 24 22 20 18 16 16 14 12 11 10 9 8 7 7 5 4 4 3 2 3 3 2 1 1 2 2 4 3 3 4 7 8 5 1 2 4 4 6 8 7 5 6 6 8 10 12 15 18 19 18 19 20 17 17 16 12 9 8 7 6 6 6 5 4 6 6 3 3 3 5 8 10 10 10 11 9 5 4 1 3 4 3 5 6 5 6
24 23 21 19 17 15 14 12 10 8 7 7 6 5 5 4 3 3 3 2 2 3 2 1 2 2 2 4 3 3 5 7 7 4 2 4 7 7 7 8 6 4 6 9 12 15 19 21 23 23 22 23 24 23 22 22 20 16 11 8 8 8 7 5 4 4 4 3 2 3 6 8 4 0 3 9 8 5 6 4 6 7 5 6 6 8 11
23 22 21 18 16 15 14 11 8 6 5 5 4 3 3 3 3 2 2 2 2 2 3 2 1 1 4 5 4 5 6 7 6 5 6 9 11 10 8 6 4 5 8 14 18 19 19 19 18 19 20 21 22 23 21 19 20 20 17 12 9 9 8 6 4 5 5 4 3 6 8 5 2 6 5 3 4 3 6 8 9 13 11 12 11 11 13
22 21 20 18 16 15 13 10 7 4 3 4 4 3 3 4 4 1 0 2 2 2 4 4 2 3 4 5 6 6 7 8 8 7 7 8 9 10 7 4 6 10 15 18 19 15 11 9 9 10 11 13 14 15 17 17 18 19 19 17 13 10 8 6 5 5 6 4 5 7 3 1 2 2 6 3 0 1 4 8 9 14 13 12 13 14 15
21 21 20 19 17 15 11 9 6 3 2 3 3 3 2 1 3 2 0 1 3 4 5 4 1 1 2 5 7 7 8 9 8 5 5 6 8 9 7 7 10 13 15 15 12 7 4 4 5 6 5 5 5 5 7 11 15 18 19 18 15 12 8 6 6 6 6 5 5 4 3 2 5 3 5 4 2 4 3 4 6 12 13 12 12 14 16
20 20 20 19 18 14 11 9 7 4 2 2 2 2 2 1 2 3 1 1 3 5 3 1 1 2 3 5 6 6 7 7 7 7 6 5 6 7 8 11 12 11 9 8 5 2 2 3 5 6 5 4 4 2 2 4 9 15 19 17 15 13 10 7 5 5 6 6 5 4 3 4 5 3 5 5 5 6 6 3 4 8 14 17 14 14 17
19 19 19 19 17 13 11 10 8 5 1 2 2 1 0 1 2 3 3 2 2 2 2 1 2 3 5 6 6 6 5 5 6 8 5 3 5 8 11 14 11 6 6 5 2 1 2 2 4 5 5 4 5 5 4 3 4 7 14 17 17 14 10 6 5 5 6 7 6 4 4 3 2 3 7 8 6 7 7 6 2 6 15 20 17 15 17
18 18 18 18 15 13 12 11 8 5 2 1 2 0 1 1 2 2 3 3 3 4 6 5 4 4 4 5 5 5 5 5 5 4 3 5 9 11 13 15 9 4 6 5 2 2 3 3 3 5 4 2 3 5 5 4 4 3 9 15 16 13 8 5 6 6 7 9 7 3 2 1 4 7 11 12 8 6 8 7 2 6 14 20 20 17 17
17 16 16 16 14 13 13 12 9 7 4 1 1 2 2 3 2 2 3 4 4 4 4 2 3 5 5 5 6 6 5 5 4 3 5 8 8 8 12 13 7 4 7 6 2 3 5 4 3 5 4 2 2 4 5 4 5 4 10 12 11 9 7 5 7 7 8 9 7 3 1 1 6 11 15 14 6 5 6 4 0 6 13 19 21 18 19
15 15 14 14 13 12 12 12 10 8 6 3 2 3 3 4 4 3 4 5 5 6 7 7 8 9 8 7 8 7 6 6 5 4 5 5 5 8 12 8 2 3 5 3 3 4 4 4 3 3 3 2 1 3 5 4 5 3 9 12 9 8 6 4 6 6 7 8 7 4 1 4 10 13 13 11 3 4 2 3 3 7 14 18 19 18 21
14 14 12 12 12 11 11 12 12 9 7 5 3 2 2 4 5 4 4 4 6 10 12 10 8 8 9 9 10 9 8 7 5 3 4 4 6 10 8 2 1 4 3 2 4 3 2 5 4 2 3 4 2 3 5 4 3 2 3 6 5 4 4 3 5 5 6 7 6 3 1 6 14 13 7 7 4 1 4 4 4 11 17 19 19 19 24
13 13 11 10 11 11 10 12 12 11 9 7 4 2 2 2 3 4 3 3 6 9 9 9 10 13 14 14 13 12 12 11 9 7 8 9 8 6 3 3 5 4 1 2 4 2 1 4 4 2 3 3 2 4 7 5 2 5 4 2 2 2 1 2 4 3 4 6 4 1 2 7 12 8 4 5 6 7 8 5 5 13 18 19 21 22 25
12 12 10 9 10 11 10 11 12 11 10 8 6 4 2 2 2 1 2 4 7 11 12 14 15 15 12 10 9 10 11 12 12 12 13 13 10 7 8 8 7 4 1 1 3 2 2 3 3 3 4 3 3 5 6 5 4 5 6 3 2 3 3 4 4 2 3 3 1 4 6 7 8 8 7 6 5 8 10 8 9 14 16 18 22 23 25
11 11 9 8 9 10 10 10 10 11 11 9 7 5 2 1 2 1 2 5 10 13 13 11 10 8 5 4 5 6 8 10 11 11 13 13 10 9 11 9 6 3 2 2 2 3 4 4 3 4 3 2 3 4 3 3 3 4 5 3 0 3 7 6 3 3 5 4 1 6 10 8 4 6 7 6 6 9 13 12 12 15 15 16 20 22 25
10 10 9 8 8 9 10 10 9 9 10 10 9 6 4 2 0 2 3 5 8 10 8 6 7 7 5 4 4 5 7 9 10 10 9 12 11 7 6 7 6 5 3 2 2 3 5 5 3 3 3 2 2 3 3 2 2 3 4 2 1 4 7 6 3 4 5 1 3 8 14 10 1 6 5 6 7 13 17 16 14 15 15 15 18 20 21
9 9 8 8 7 7 9 10 9 8 8 9 9 8 6 4 2 2 3 4 5 5 5 5 7 9 8 6 5 7 9 11 12 11 8 10 14 11 6 4 4 5 5 6 7 7 6 4 2 3 3 2 4 3 2 2 3 4 4 3 3 6 7 6 4 5 5 2 3 12 17 8 5 5 2 6 11 19 21 17 13 13 12 12 16 18 19
8 8 8 8 8 7 8 9 10 9 7 6 7 8 7 6 5 4 4 4 4 4 4 4 5 9 9 6 6 8 10 11 12 11 7 5 8 12 12 8 7 9 11 12 12 10 5 3 2 3 3 3 4 4 3 3 5 4 3 6 10 10 7 6 5 5 4 2 5 14 14 3 5 2 10 13 18 24 24 17 13 11 10 11 15 15 16
7 7 7 7 8 8 8 8 9 10 8 6 4 4 6 7 7 6 5 4 3 2 2 4 6 7 7 6 8 10 10 10 11 8 4 2 1 7 10 11 11 11 12 13 12 8 4 2 3 3 4 5 5 4 3 5 5 2 2 8 13 9 5 6 5 3 3 4 8 13 10 4 7 14 20 21 21 22 22 19 16 12 10 12 15 16 17
6 7 6 7 7 7 8 8 8 9 10 8 5 2 3 5 6 7 7 6 4 2 4 8 10 7 4 5 8 10 10 11 12 11 8 5 3 3 4 5 6 7 8 8 7 5 3 3 4 4 5 7 6 4 4 6 4 1 4 11 14 10 8 9 7 4 5 9 13 14 10 10 16 22 23 22 21 19 20 21 19 15 12 10 13 17 18
6 7 7 7 7 7 8 8 8 8 9 10 8 3 2 3 4 7 8 8 6 5 7 9 8 4 3 4 6 8 9 10 12 13 11 9 7 5 3 1 1 2 4 4 4 4 3 3 5 5 7 9 7 5 5 6 3 3 9 16 18 16 14 14 11 9 9 13 17 16 13 15 20 23 23 22 19 18 19 20 19 19 17 13 13 15 15
5 6 8 8 8 8 7 7 8 8 9 11 9 5 1 2 3 6 9 9 7 6 6 5 3 2 2 3 4 6 6 6 8 11 11 11 10 8 6 5 4 3 3 3 3 3 3 3 6 8 11 12 8 3 4 5 3 5 15 23 24 22 20 17 14 12 13 16 19 18 16 17 20 21 21 18 15 14 16 17 17 17 17 16 16 14 11
6 6 8 9 9 8 8 7 7 7 8 9 9 5 2 2 4 7 9 9 8 7 5 5 5 4 3 3 3 5 5 3 3 6 8 9 9 9 8 5 4 4 3 2 3 3 2 3 7 9 11 11 7 2 3 5 3 7 20 27 26 25 23 19 17 16 17 19 20 17 14 15 16 16 16 16 14 13 15 16 15 15 14 15 16 14 9
8 7 8 9 9 9 8 7 6 6 6 8 8 7 6 6 7 8 8 8 8 7 5 4 4 2 2 4 4 3 3 2 2 2 2 3 5 6 6 5 5 5 4 3 2 3 3 3 5 7 9 10 6 2 3 4 5 10 21 25 25 26 25 21 20 20 20 22 21 17 16 20 20 17 17 17 15 13 14 16 15 14 14 15 15 13 10
9 8 8 9 10 10 9 8 6 5 6 7 7 8 8 8 7 7 6 6 7 6 4 3 2 1 1 2 2 1 3 2 2 3 2 1 1 1 2 3 4 6 6 4 2 3 4 4 4 5 7 7 5 2 3 6 9 15 21 24 24 25 24 21 21 22 22 24 23 17 17 21 22 18 16 16 14 12 12 13 13 12 13 15 15 14 13
10 10 9 10 10 11 10 8 6 5 6 7 7 8 9 7 5 5 5 5 5 5 3 2 2 3 2 2 2 1 2 2 2 4 3 2 2 2 1 1 2 3 5 5 3 3 4 4 4 5 5 5 4 2 3 8 14 18 21 22 22 23 22 20 22 24 24 25 25 22 22 22 21 19 17 16 14 13 11 10 10 10 11 13 14 14 13
10 10 11 12 12 11 9 7 6 6 7 8 8 9 9 6 4 4 4 4 3 3 2 1 1 3 2 1 1 1 1 1 1 3 3 2 2 2 2 1 1 1 3 3 2 2 4 4 4 5 5 5 4 3 3 9 15 19 21 22 23 23 21 21 22 24 24 24 25 27 29 29 26 23 22 20 18 15 11 9 9 8 8 8 9 10 12
10 11 12 13 12 11 8 6 5 5 6 8 10 10 8 5 4 4 4 4 4 3 2 1 1 2 2 1 1 1 1 2 2 2 3 3 2 1 1 1 1 1 2 3 1 1 4 4 4 4 5 4 4 5 7 9 13 17 19 20 21 20 19 20 22 23 22 22 24 27 28 29 27 25 24 24 22 17 13 9 7 6 6 6 5 7 8
11 12 12 13 13 10 5 4 5 7 8 10 10 8 6 4 3 4 4 3 3 4 4 2 2 4 4 2 2 2 2 2 2 2 3 3 2 1 1 0 0 0 1 2 1 2 4 4 3 4 5 4 5 9 10 10 11 14 16 18 20 21 19 18 19 21 20 21 24 27 28 29 27 25 25 25 24 21 17 13 9 6 5 6 6 7 8
11 12 13 13 11 7 3 4 7 10 10 9 8 6 4 2 2 3 3 2 2 3 4 4 4 4 5 3 3 4 2 1 1 2 2 3 2 1 1 1 1 1 1 0 2 2 2 2 3 4 5 6 9 13 14 12 10 12 14 17 21 24 23 21 20 21 22 24 26 28 29 30 29 27 25 25 24 23 20 17 13 8 4 4 6 8 9
11 12 14 13 9 6 5 8 10 10 9 6 4 2 1 1 1 2 2 2 2 3 4 4 5 5 5 3 4 4 3 2 1 1 2 2 2 1 1 1 1 1 1 1 2 2 2 2 2 4 5 7 10 16 17 14 12 11 12 14 17 21 24 25 24 22 21 21 21 22 23 24 26 26 25 24 25 25 22 19 17 15 9 3 2 5 7
11 13 14 12 9 8 8 9 9 8 5 3 1 1 1 1 1 1 1 1 2 3 3 4 5 5 5 5 4 3 3 3 2 1 0 1 1 1 1 2 1 1 1 1 2 1 1 2 2 3 4 6 10 15 17 15 13 12 12 12 14 16 19 23 25 24 21 17 16 18 19 20 22 24 24 23 25 26 25 21 18 17 15 10 6 2 2
12 13 13 11 10 9 8 7 6 5 3 1 1 1 1 1 1 2 1 1 1 1 3 4 4 3 4 5 5 4 4 4 3 1 1 0 2 2 1 1 1 1 0 1 1 0 1 1 2 2 3 6 10 14 14 14 14 13 12 13 14 14 15 18 22 24 23 20 16 16 18 20 21 23 23 24 24 25 25 24 21 19 17 16 12 9 6
14 14 13 11 9 7 5 4 3 3 2 1 1 1 1 1 2 2 1 1 2 2 3 3 4 5 7 7 5 4 4 3 2 1 1 0 2 1 0 1 1 0 1 1 0 1 1 2 2 2 3 7 11 12 12 12 14 14 14 14 14 13 13 15 18 21 23 23 20 17 17 18 20 21 22 25 27 27 26 26 24 22 19 17 15 13 11
14 14 12 9 5 4 3 3 2 2 1 1 1 1 1 1 1 1 1 3 3 3 3 4 7 8 8 6 3 2 3 3 2 2 1 1 1 1 1 1 0 1 1 1 1 1 2 2 2 2 5 9 12 12 10 11 13 14 13 14 14 13 12 13 14 17 20 23 22 19 17 17 19 19 20 23 27 29 29 27 25 23 21 18 17 17 15
13 12 9 5 3 2 2 2 1 1 1 0 0 0 2 2 1 1 2 3 3 3 5 8 8 6 4 2 1 2 2 2 2 2 1 1 1 1 1 1 1 1 1 1 1 1 1 1 2 3 6 9 11 10 8 8 9 11 12 13 14 13 12 11 11 13 17 21 22 21 18 17 17 18 19 21 23 27 28 27 25 24 22 20 20 20 18
11 8 5 3 2 1 1 1 1 0 0 1 1 1 2 2 2 1 3 5 5 7 11 12 10 5 3 3 2 1 1 2 1 1 0 1 1 0 1 2 2 1 1 1 1 1 1 2 2 3 7 9 11 11 10 7 6 8 10 11 13 14 13 10 9 10 13 17 20 21 20 18 17 17 19 20 22 24 25 26 26 26 25 25 27 26 23
8 5 3 1 1 1 0 0 1 0 1 2 3 4 4 4 5 6 7 9 10 11 13 13 9 5 3 2 1 0 1 1 1 0 1 1 1 1 2 2 1 1 1 1 0 2 3 3 3 4 8 10 11 12 12 8 5 7 9 10 12 14 14 11 9 8 10 14 17 19 19 18 17 16 17 20 24 25 25 25 27 28 28 28 29 29 28
6 4 1 1 1 1 1 2 2 3 4 6 8 8 8 8 10 11 11 10 11 12 11 9 6 3 1 1 1 1 2 2 0 0 1 1 1 2 1 1 1 1 1 1 2 2 2 3 4 5 8 10 11 12 11 8 6 7 9 9 11 14 15 13 10 8 8 11 14 16 18 18 17 16 16 18 22 24 24 24 26 28 27 27 26 26 26
5 3 2 1 1 2 2 2 4 7 10 11 12 13 12 10 12 14 14 11 10 11 9 5 3 2 1 1 1 0 1 2 1 0 1 1 1 1 0 1 2 1 2 1 1 2 1 2 4 5 7 8 9 11 11 8 6 7 8 9 10 12 14 14 12 7 6 9 12 14 16 16 16 15 15 17 20 23 24 24 25 25 25 25 24 24 24
5 4 3 2 3 4 4 5 5 7 12 15 14 13 13 13 13 14 14 11 10 10 8 3 2 2 1 2 1 0 0 2 2 1 1 1 1 1 0 0 1 2 1 1 1 1 1 1 2 4 7 7 8 10 10 8 7 7 8 9 10 11 12 14 13 10 6 6 8 11 13 15 15 16 15 15 18 22 23 24 25 25 25 25 25 24 24
6 5 5 5 4 4 5 5 4 4 10 14 13 12 13 14 10 6 8 9 11 11 7 2 1 2 1 1 2 1 0 1 1 1 1 1 0 1 1 1 1 1 1 1 2 1 1 1 2 4 6 6 7 8 10 9 8 8 8 9 10 10 10 12 13 12 8 4 4 6 9 12 14 15 14 13 14 18 22 23 24 25 25 24 24 24 24
5 5 5 6 7 6 6 6 5 5 9 12 10 9 10 9 5 4 4 4 9 11 6 2 1 2 1 0 1 1 0 0 1 1 1 1 0 1 2 2 1 1 1 1 2 2 2 2 2 3 4 4 4 7 9 9 9 9 9 9 9 10 10 10 11 12 10 7 5 5 6 8 10 12 13 12 12 15 17 20 22 24 24 23 22 22 22
4 4 4 7 9 9 9 10 11 12 15 16 13 8 6 6 6 5 1 5 5 8 5 3 2 1 1 0 1 1 1 1 1 1 1 0 1 2 2 2 1 1 1 2 2 3 3 4 3 3 3 2 3 6 9 10 9 9 9 9 9 9 9 10 11 11 10 8 6 5 4 4 6 8 10 11 12 13 14 16 18 21 23 23 22 21 21
Wind_Direction
345 344 342 342 345 348 351 353 358 1 0 360 360 3 12 18 8 2 7 14 53 85 82 43 48 65 34 25 26 16 23 24 16 16 19 17 14 40 63 41 42 58 13 322 320 337 310 253 255 275 276 294 308 9 4 341 327 319 308 310 322 299 261 257 263 264 271 271 278 35 211 183 165 195 2 357 319 301 272 266 263 222 217 211 227 246 246
345 343 342 344 347 349 352 354 0 6 6 4 3 5 9 3 355 15 18 22 60 83 65 41 67 53 30 47 42 34 45 35 22 22 22 14 359 34 53 29 19 23 358 332 327 329 310 257 256 287 287 272 161 217 336 339 329 322 324 334 338 315 241 244 260 227 218 221 188 141 131 110 104 25 21 354 341 341 307 261 272 254 219 211 226 238 243
345 343 343 346 348 350 353 356 2 9 11 9 7 7 7 358 355 21 27 42 68 77 61 64 78 51 45 55 38 26 42 33 19 20 26 19 9 23 50 37 35 22 357 334 338 326 295 285 297 297 301 299 242 234 284 316 318 311 308 314 321 303 258 259 257 221 202 192 191 196 170 39 346 277 291 314 349 348 319 248 234 239 213 216 231 238 244
345 344 345 347 348 350 354 358 3 9 13 14 15 17 15 10 12 2 22 48 64 67 60 53 62 53 39 55 41 26 26 14 8 19 35 22 14 30 52 31 31 26 8 350 335 318 274 309 322 300 295 299 284 262 290 303 304 300 301 309 310 283 265 261 260 262 262 271 344 313 313 306 297 302 298 301 330 330 307 241 231 252 246 230 223 228 249
345 344 346 347 348 351 357 360 2 7 16 21 22 29 35 45 41 352 348 35 49 56 51 40 42 74 29 38 37 24 24 11 3 20 34 14 5 25 65 44 36 21 7 350 317 306 292 305 311 298 292 297 302 311 314 306 297 294 298 309 306 276 265 259 258 263 271 286 298 291 285 280 282 292 291 292 298 276 241 237 261 328 300 245 196 197 243
345 345 346 347 349 355 1 1 1 8 22 30 33 39 45 63 70 28 23 33 29 34 27 15 22 63 68 69 42 23 30 26 9 4 0 1 10 19 61 51 38 15 355 323 290 298 299 296 299 300 310 315 312 315 314 301 291 286 290 306 307 274 265 264 264 266 270 278 279 270 268 269 269 271 274 279 278 259 243 250 261 270 260 270 304 280 259
345 344 345 348 352 0 4 1 5 19 29 34 45 54 53 65 79 41 42 63 61 25 357 351 20 51 54 56 37 21 24 21 9 346 324 340 30 28 357 6 4 349 325 274 263 286 298 295 298 312 315 311 306 305 303 298 288 271 275 296 299 269 265 269 270 272 273 271 263 259 263 265 264 260 260 266 268 261 257 257 257 250 242 257 278 281 284
344 343 346 352 359 8 11 8 16 28 33 41 55 59 53 53 53 28 31 66 82 56 5 354 32 52 42 43 31 16 15 10 356 331 303 294 33 22 351 342 338 329 311 268 258 276 291 288 288 297 300 297 290 282 283 284 272 256 267 292 291 259 267 309 307 280 271 265 254 248 250 259 267 266 261 257 257 258 257 260 263 255 246 245 256 269 278
343 344 349 357 5 13 18 21 27 29 32 43 51 53 53 54 50 34 27 55 55 40 22 9 39 72 42 30 22 5 6 5 347 325 276 245 295 343 339 334 328 314 292 269 271 284 285 276 276 277 277 275 270 261 260 263 265 265 264 271 274 255 270 309 319 284 269 259 240 238 246 262 267 263 254 243 239 239 238 256 292 286 266 255 247 256 273
344 348 355 2 7 12 16 24 31 28 30 36 38 45 50 52 47 28 17 52 42 24 24 8 11 66 31 19 24 353 344 357 349 340 284 237 283 317 321 319 318 301 285 288 298 299 289 280 278 276 269 264 262 258 253 252 254 257 261 264 260 255 268 283 276 274 272 233 218 258 265 261 258 249 229 212 206 196 179 184 5 3 305 273 255 274 323
346 353 3 7 8 9 12 16 21 20 19 21 28 44 44 37 32 10 4 54 47 15 12 23 36 49 4 359 5 330 330 350 351 345 323 296 301 308 307 303 297 279 286 299 306 303 293 287 283 276 267 260 258 255 251 247 245 242 242 251 251 245 250 255 251 263 269 254 264 267 245 239 241 26 186 188 178 158 153 133 38 27 11 334 315 321 331
351 360 7 7 4 5 8 5 2 6 1 348 355 25 28 6 354 358 18 25 17 2 359 2 1 315 314 321 321 311 318 333 331 310 292 293 300 305 306 296 279 288 306 310 311 309 301 292 282 271 261 256 255 253 249 245 241 236 230 229 237 238 236 237 236 244 267 292 266 225 223 218 118 58 55 153 160 110 135 125 60 34 18 358 342 332 330
357 6 7 4 360 358 3 5 1 6 353 323 327 355 2 339 323 299 124 352 339 341 339 328 293 282 294 300 311 317 315 317 315 298 281 281 290 299 302 287 280 297 310 313 311 309 302 291 280 269 260 256 252 247 244 241 237 232 225 220 224 230 229 228 230 238 260 273 221 209 229 5 176 69 37 49 19 356 165 146 70 36 20 1 343 333 330
4 10 7 3 359 356 5 17 22 28 4 326 324 341 350 324 301 296 292 339 326 322 318 314 324 342 317 319 326 325 321 323 320 305 290 286 282 286 295 299 298 304 311 311 306 301 293 294 299 297 283 266 250 236 241 245 238 228 220 212 211 218 222 222 225 229 240 247 227 225 318 306 202 175 34 21 317 321 267 177 79 39 19 1 343 335 335
9 12 7 2 358 358 12 26 35 56 41 330 341 355 349 305 265 272 269 303 317 310 288 254 40 13 330 325 330 325 324 332 331 322 316 297 277 283 309 322 320 317 317 311 300 295 296 308 323 326 327 324 308 290 289 276 246 227 217 207 200 207 212 205 208 225 240 250 247 229 234 214 169 120 13 341 298 297 289 232 102 41 11 359 350 340 337
12 13 6 2 358 1 18 28 34 56 65 305 328 19 352 269 236 242 254 257 281 300 284 255 302 318 310 308 311 315 319 330 336 331 324 309 307 309 323 336 337 332 329 317 281 285 302 309 331 322 307 316 316 300 294 299 276 228 209 198 191 198 204 195 202 233 242 241 238 216 200 185 100 9 338 329 303 276 258 223 161 25 4 358 351 341 340
14 13 6 2 0 5 21 29 29 40 63 293 305 6 167 233 241 236 241 230 234 276 292 291 280 277 291 305 307 311 314 313 322 325 309 318 321 316 327 343 349 347 345 337 286 317 326 314 332 322 291 260 290 304 304 293 287 230 191 189 188 189 190 190 206 230 244 238 240 242 206 160 8 339 328 329 315 261 224 205 187 12 2 355 347 339 342
15 13 6 4 4 9 20 28 29 33 52 96 213 212 199 218 231 218 225 238 253 276 289 310 294 279 286 305 305 301 302 300 303 301 294 303 309 312 326 338 345 353 352 347 322 341 339 326 329 318 295 224 235 296 312 297 280 227 175 174 183 184 181 192 208 226 245 236 235 260 236 44 354 329 326 335 320 221 202 189 122 10 2 353 344 338 342
14 12 7 7 9 12 20 27 32 34 41 64 148 192 195 199 208 219 234 237 238 257 278 296 297 291 292 295 290 288 295 297 297 304 304 302 318 324 318 313 309 340 342 342 342 340 324 321 326 293 282 289 249 284 299 288 286 244 169 164 172 179 175 189 208 223 242 233 236 263 226 42 357 327 330 353 344 200 147 78 69 31 11 351 341 344 349
14 10 7 9 12 13 19 28 35 37 37 51 105 166 180 192 209 229 250 250 253 272 288 297 295 293 297 293 285 286 292 288 275 269 273 282 317 329 322 282 313 333 327 337 347 346 304 315 324 285 288 305 283 289 298 275 286 346 134 151 162 169 164 176 197 214 233 223 222 242 203 24 359 337 342 20 14 348 34 46 59 41 23 357 346 352 354
13 9 7 10 12 14 19 28 35 38 41 50 75 118 143 183 210 231 265 277 267 275 293 306 304 301 300 293 285 278 271 267 263 260 265 277 295 314 317 304 313 320 351 1 330 316 290 314 318 291 290 295 273 305 315 307 339 22 33 48 52 63 80 207 197 203 226 211 186 54 349 8 12 15 63 65 33 16 20 21 34 36 27 6 355 352 353
13 8 6 8 12 15 21 27 33 38 42 46 59 84 110 145 162 187 281 284 276 278 289 299 303 304 304 298 289 276 267 268 269 262 262 269 273 268 268 285 298 289 256 300 298 292 300 303 306 303 293 286 287 301 312 321 348 13 15 17 51 33 321 273 229 239 294 261 274 26 11 11 32 60 89 85 50 20 16 20 28 30 23 11 1 352 352
13 7 5 7 12 19 23 26 31 39 42 44 49 57 64 120 160 204 295 296 295 298 302 306 313 322 329 320 297 282 282 284 280 269 259 256 259 266 269 276 284 273 255 253 257 287 303 293 296 306 294 289 305 305 317 341 341 354 359 353 310 311 313 302 273 296 310 287 306 20 4 354 36 85 79 68 47 15 4 3 10 18 17 10 3 354 349
14 7 5 8 12 21 27 26 27 35 43 46 47 47 43 51 212 274 290 294 304 315 323 333 350 0 357 345 327 312 309 305 301 295 267 239 234 249 270 276 274 267 267 281 295 319 312 295 282 287 284 311 334 314 317 348 343 336 340 330 277 307 325 338 337 319 323 1 72 15 347 330 157 122 68 32 13 353 346 342 349 3 6 1 358 352 348
14 8 10 15 15 18 23 24 23 27 37 43 46 49 46 38 23 344 317 306 314 326 322 326 356 9 0 344 331 327 327 321 316 316 296 250 237 237 243 266 283 289 302 318 334 342 326 295 277 284 291 359 26 346 305 311 322 326 347 5 335 317 326 345 347 328 320 309 7 354 339 316 168 144 338 332 330 327 325 325 332 346 352 346 347 350 350
13 9 13 20 22 18 18 20 20 21 25 32 40 46 46 40 33 22 359 329 311 302 287 293 345 6 5 2 355 346 344 339 331 329 326 295 253 238 238 252 280 299 308 316 327 338 330 286 286 300 304 356 6 335 290 288 304 314 4 359 336 323 328 343 336 319 309 298 348 351 343 320 166 261 300 302 310 314 314 312 315 325 334 331 333 343 350
6 3 4 10 14 15 15 17 18 18 18 18 18 26 33 34 31 23 13 359 334 305 268 284 317 345 12 28 17 9 11 11 5 5 18 35 228 226 236 253 277 299 315 323 329 341 346 308 313 318 311 316 318 304 282 288 294 291 17 350 343 341 343 347 339 324 334 345 342 341 338 297 273 292 296 300 306 309 307 305 305 307 315 321 321 326 337
3 359 354 352 355 357 1 9 13 13 14 12 2 340 351 12 20 17 10 7 359 322 285 293 307 330 20 33 18 20 28 28 29 40 59 71 86 158 213 249 275 304 328 333 335 350 0 337 334 333 325 323 322 313 304 302 301 11 6 350 352 355 349 347 349 336 326 330 328 326 316 286 281 288 294 298 300 297 295 296 296 293 292 296 300 306 320
360 357 352 347 344 340 343 351 358 2 6 6 4 353 304 317 350 6 3 356 346 324 304 302 312 340 9 356 3 18 26 31 39 50 62 70 81 102 125 149 305 341 349 351 357 5 6 353 343 340 342 344 338 322 324 334 351 16 357 352 356 359 356 355 352 334 324 327 326 320 305 287 287 294 298 297 291 287 286 287 288 288 283 277 278 289 304
350 351 352 349 344 338 334 337 344 352 358 359 1 6 341 297 320 346 350 346 336 326 315 306 314 344 334 324 353 11 14 24 38 48 61 71 76 85 96 97 88 73 54 39 20 9 12 5 348 345 354 359 355 334 332 342 351 358 354 356 359 359 358 360 356 344 337 332 326 317 304 296 301 308 306 299 293 291 289 287 287 288 281 272 271 275 286
347 343 348 349 345 339 333 329 335 345 352 354 356 357 348 315 314 324 334 335 327 318 305 286 287 307 308 290 305 338 350 0 23 42 60 70 71 76 84 84 78 68 47 18 4 5 13 2 350 350 356 2 8 8 328 334 358 358 352 354 357 357 356 357 356 355 352 345 337 330 322 322 326 324 314 308 306 300 293 289 290 289 282 272 266 264 266
353 341 339 342 340 337 331 325 328 339 347 348 346 333 315 307 305 307 316 323 319 312 304 294 293 307 314 291 290 316 348 341 312 347 44 70 75 78 76 64 57 47 24 359 355 4 2 351 348 351 354 357 4 2 334 352 15 357 349 351 356 356 355 354 355 358 3 2 357 349 341 342 344 338 322 314 312 302 292 288 286 286 283 273 259 246 239
356 346 338 336 336 334 329 323 319 326 335 337 334 324 314 308 302 297 300 311 315 310 301 300 302 292 290 293 293 344 26 10 298 285 279 220 165 103 74 58 54 46 32 22 9 0 1 352 338 340 350 360 6 0 352 10 9 357 354 357 358 354 352 353 355 359 5 8 7 359 343 338 342 341 332 324 319 309 296 288 285 284 281 275 258 237 226
351 346 341 337 333 330 326 319 310 313 325 329 328 324 317 308 295 283 283 296 316 318 303 289 304 305 290 255 249 319 43 49 303 287 272 229 221 215 162 76 51 50 42 29 9 3 7 356 340 337 343 351 359 0 7 9 5 360 360 2 0 355 354 356 359 1 3 4 4 3 359 355 355 357 355 348 338 327 310 293 285 282 280 278 265 240 226
345 343 339 335 332 328 322 314 306 310 319 323 322 323 320 310 288 274 271 278 305 318 299 240 290 307 307 295 269 305 76 124 242 275 261 233 230 212 161 99 46 48 32 13 2 19 11 354 347 350 342 340 358 26 13 3 3 3 4 4 2 360 359 358 357 357 360 2 3 6 10 10 6 3 1 359 353 344 329 307 292 282 278 279 268 243 233
342 342 337 334 332 330 322 308 300 307 315 319 320 322 321 313 294 281 273 269 277 281 268 256 261 247 249 298 320 281 246 227 227 232 226 224 235 185 130 109 60 8 357 353 358 29 11 4 8 6 356 356 17 16 1 359 7 9 8 6 6 4 3 1 357 354 357 3 7 9 11 9 6 3 2 3 4 1 350 333 313 292 278 272 260 247 247
336 338 336 334 333 332 322 301 303 312 314 316 319 322 324 320 307 296 287 275 266 257 249 257 259 228 218 249 290 261 242 244 232 212 198 193 181 109 91 107 113 135 344 3 13 357 355 10 33 33 27 26 19 10 3 2 8 13 14 15 15 13 9 4 0 359 1 5 8 11 11 8 6 5 3 3 6 9 8 3 352 319 286 272 262 255 255
333 335 334 334 335 334 313 301 311 315 316 317 320 327 333 329 303 289 279 257 247 251 244 250 261 237 208 214 273 272 262 259 238 212 187 182 172 133 128 155 131 157 193 19 18 356 347 15 46 38 27 17 11 11 11 4 0 8 17 21 22 21 18 14 8 6 6 7 7 9 9 6 5 5 4 4 7 11 15 19 18 7 333 285 273 267 262
332 333 331 331 332 326 311 311 315 316 315 316 319 316 310 305 286 278 269 238 227 232 230 240 256 241 212 221 275 282 273 267 259 224 184 188 189 148 149 177 178 174 176 58 23 12 20 37 34 22 17 7 1 7 10 6 358 359 7 15 18 19 20 20 19 16 12 10 9 8 8 7 6 5 6 8 11 15 20 26 29 27 25 12 291 270 264
331 331 327 325 325 322 318 318 321 320 316 319 326 290 266 269 249 261 306 292 234 210 218 250 271 268 252 253 270 280 276 272 270 269 148 165 172 161 153 159 179 197 157 52 25 22 62 46 18 14 16 358 349 357 5 6 1 356 356 2 8 10 14 19 22 21 18 13 12 14 14 14 15 13 11 11 15 18 20 25 32 36 36 36 37 23 287
328 327 322 318 319 322 322 321 324 324 317 326 342 303 260 249 260 261 283 309 269 247 253 260 271 285 279 264 254 256 273 274 266 277 313 162 163 164 140 135 160 183 83 54 37 66 87 58 19 20 11 345 344 351 358 0 3 4 0 357 358 1 6 13 18 21 20 17 14 15 16 18 21 21 18 19 23 23 22 25 32 37 37 38 38 37 39
323 323 321 317 317 325 330 326 330 334 333 357 358 329 263 292 303 278 239 238 277 299 288 266 279 307 308 292 271 258 264 263 237 242 312 186 176 174 107 124 167 114 74 101 162 97 72 48 26 14 345 339 348 353 352 353 2 8 7 1 357 357 2 9 14 20 23 22 19 18 18 20 22 23 23 28 33 35 32 29 31 35 38 41 43 45 47
321 323 323 318 318 334 339 328 325 348 16 47 26 356 327 313 291 242 250 262 266 272 285 293 304 313 314 304 277 242 241 242 229 216 196 160 176 170 138 120 57 63 96 137 128 71 56 33 15 352 334 343 353 355 348 351 1 6 7 7 4 358 359 7 12 18 25 27 26 24 24 24 24 26 28 33 39 44 42 38 37 40 42 42 43 43 42
322 322 319 313 308 329 340 325 328 9 40 82 124 299 304 301 273 234 281 293 281 282 306 317 319 315 309 300 269 234 230 231 230 220 185 148 144 153 131 87 52 80 127 129 80 63 36 329 320 317 329 346 359 0 349 349 2 6 5 9 10 4 359 2 7 17 28 31 30 29 31 30 29 31 33 34 39 44 45 44 45 48 49 50 50 48 45
320 318 317 314 303 299 315 318 315 296 251 242 195 189 252 289 286 262 285 298 297 303 317 327 328 313 290 285 274 244 234 221 209 207 192 179 170 63 66 86 79 79 100 81 55 11 329 328 326 330 337 346 359 5 357 348 359 12 10 8 11 9 5 360 360 14 30 35 33 32 34 33 31 32 36 40 46 50 50 48 49 52 55 57 58 58 58
316 312 318 327 300 273 227 290 330 40 186 216 219 216 231 258 271 276 285 293 296 303 321 333 333 316 300 302 296 30 357 278 207 111 330 251 175 91 91 115 96 67 76 87 299 303 332 344 340 341 345 345 352 2 5 5 20 31 24 16 15 16 14 8 4 15 35 42 41 39 39 39 38 35 37 44 51 55 55 54 54 56 58 59 58 59 63
306 298 294 291 281 261 217 229 253 254 243 242 249 259 267 272 280 286 291 296 301 310 325 337 330 308 315 325 296 1 17 355 303 41 343 306 127 109 126 152 116 91 120 184 265 281 324 354 348 345 347 346 350 2 14 28 45 40 28 21 21 24 24 19 14 20 41 48 47 45 44 46 47 43 40 44 50 52 54 56 57 58 60 61 60 59 61
290 271 253 254 235 207 205 251 267 271 275 273 271 273 277 280 288 296 299 300 305 314 327 340 319 280 307 355 311 303 15 349 327 30 13 356 129 121 110 120 118 142 189 220 269 287 321 357 353 349 349 354 2 12 20 32 45 41 33 26 24 26 28 24 19 26 56 62 54 50 50 52 55 52 46 45 48 50 51 53 55 55 56 57 59 60 61
271 242 232 257 255 242 260 280 282 284 289 287 281 279 277 274 283 303 315 319 319 320 325 335 319 292 313 356 344 296 330 337 333 334 324 302 162 143 331 285 154 168 204 220 231 299 357 7 342 344 354 8 23 27 25 22 24 30 34 31 25 24 28 26 21 23 44 63 56 51 50 54 59 60 54 49 50 51 52 52 52 52 51 51 52 55 58
258 240 235 251 260 261 279 287 278 281 291 291 295 305 298 281 277 317 351 348 336 327 318 308 349 1 26 20 351 342 3 348 329 274 296 324 101 143 286 269 201 176 200 206 209 244 318 302 309 340 360 18 35 33 26 18 12 17 27 32 26 20 23 26 24 22 24 37 61 62 56 53 57 60 58 55 57 58 56 54 51 49 49 51 52 52 53
251 241 236 246 256 263 276 281 281 287 289 290 303 332 331 316 326 18 23 333 323 322 309 229 104 31 42 26 344 338 285 279 274 262 295 325 186 214 283 302 268 210 223 197 199 234 253 244 273 331 359 27 46 37 27 19 11 9 15 22 22 17 17 23 27 25 21 20 38 63 64 57 56 57 57 57 61 64 62 58 53 49 48 50 55 57 56
239 246 256 267 273 277 278 277 282 292 297 299 305 317 311 307 332 354 189 206 268 298 276 191 138 51 24 352 343 320 238 242 280 278 279 251 189 231 286 311 320 251 251 221 211 222 225 221 241 301 333 11 46 39 30 21 13 10 10 11 14 16 15 16 22 26 26 26 37 55 69 71 65 59 54 52 55 60 63 61 56 52 49 49 52 57 60